VE3KSR Weather Reports


Display with metric or nautical units.
time (UTC)temp
F
wind
direction
speed
MPH
gust
MPH
rain 1hr
in
rain 24hr
in
rain mn
in
humidity
%
barometer
mb
20260904222723 0 0 0.0 0.0 0.00 0.00 0.00 80
20260904222223 0 0 0.0 0.0 0.00 0.00 0.00 80
20260904221723 0 0 0.0 0.0 0.00 0.00 0.00 72
20260904221223 0 0 0.0 0.0 0.00 0.00 0.00 80
20260904220723 0 0 0.0 0.0 0.00 0.00 0.00 79
20260904220223 0 0 0.0 0.0 0.00 0.00 0.00 79
20260904215724 0 0 0.0 0.0 0.00 0.00 0.00 78
20260904215223 0 0 0.0 0.0 0.00 0.00 0.00 78
20260904214723 0 0 0.0 0.0 0.00 0.00 0.00 77
20260904214223 0 0 0.0 0.0 0.00 0.00 0.00 76
20260904213723 0 0 0.0 0.0 0.00 0.00 0.00 76
20260904213223 0 0 0.0 0.0 0.00 0.00 0.00 75
20260904212723 0 0 0.0 0.0 0.00 0.00 0.00 78
20260904212224 0 0 0.0 0.0 0.00 0.00 0.00 78
20260904211723 0 0 0.0 0.0 0.00 0.00 0.00 78
20260904211223 0 0 0.0 0.0 0.00 0.00 0.00 77
20260904210723 -55 0 0.0 0.0 0.00 0.00 0.00 78
20260904210223 0 0 0.0 0.0 0.00 0.00 0.00 78
20260904205723 0 0 0.0 0.0 0.00 0.00 0.00 77
20260904205223 0 0 0.0 0.0 0.00 0.00 0.00 76
20260904204723 0 0 0.0 0.0 0.00 0.00 0.00 75
20260904204223 0 0 0.0 0.0 0.00 0.00 0.00 75
20260904203723 0 0 0.0 0.0 0.00 0.00 0.00 75
20260904203223 0 0 0.0 0.0 0.00 0.00 0.00 74
20260904202723 -55 0 0.0 0.0 0.00 0.00 0.00 76
20260904202223 -55 0 0.0 0.0 0.00 0.00 0.00 75
20260904201724 -55 0 0.0 0.0 0.00 0.00 0.00 77
20260904201223 0 0 0.0 0.0 0.00 0.00 0.00 77
20260904200724 -55 0 0.0 0.0 0.00 0.00 0.00 78
20260904200223 -55 0 0.0 0.0 0.00 0.00 0.00 77
20260904195723 0 0 0.0 0.0 0.00 0.00 0.00 77
20260904195223 -55 0 0.0 0.0 0.00 0.00 0.00 78
20260904194723 -55 0 0.0 0.0 0.00 0.00 0.00 78
20260904194223 0 0 0.0 0.0 0.00 0.00 0.00 78
20260904193723 -48 0 0.0 0.0 0.00 0.00 0.00 79
20260904193225 -35 0 0.0 0.0 0.00 0.00 0.00 79
20260904192723 -39 0 0.0 0.0 0.00 0.00 0.00 77
20260904192223 -37 0 0.0 0.0 0.00 0.00 0.00 78
20260904191723 -34 0 0.0 0.0 0.00 0.00 0.00 78
20260904191223 -42 0 0.0 0.0 0.00 0.00 0.00 78
20260904190723 -31 0 0.0 0.0 0.00 0.00 0.00 78
20260904190223 -43 0 0.0 0.0 0.00 0.00 0.00 77
20260904185723 -42 0 0.0 0.0 0.00 0.00 0.00 76
20260904184723 -28 0 0.0 0.0 0.00 0.00 0.00 75
20260904184223 -43 0 0.0 0.0 0.00 0.00 0.00 75
20260904183723 74 0 0.0 0.0 0.00 0.00 0.00 76
20260904183223 74 0 0.0 0.0 0.00 0.00 0.00 77
20260904182723 -53 0 0.0 0.0 0.00 0.00 0.00 77
20260904182223 -54 0 0.0 0.0 0.00 0.00 0.00 77
20260904181723 74 0 0.0 0.0 0.00 0.00 0.00 76
20260904181223 19 0 0.0 0.0 0.00 0.00 0.00 76
20260904180723 -40 0 0.0 0.0 0.00 0.00 0.00 78
20260904180223 74 0 0.0 0.0 0.00 0.00 0.00 79
20260904175723 73 0 0.0 0.0 0.00 0.00 0.00 81
20260904174723 -43 0 0.0 0.0 0.00 0.00 0.00 80
20260904174224 -51 0 0.0 0.0 0.00 0.00 0.00 79
20260904173723 -44 0 0.0 0.0 0.00 0.00 0.00 80
20260904173223 -29 0 0.0 0.0 0.00 0.00 0.00 79
20260904172723 74 0 0.0 0.0 0.00 0.00 0.00 81
20260904172223 -22 0 0.0 0.0 0.00 0.00 0.00 81
20260904170800 73 0 0.0 0.0 0.00 0.00 0.00 82
20260904170724 73 0 0.0 0.0 0.00 0.00 0.00 82
20260904170223 -54 0 0.0 0.0 0.00 0.00 0.00 82
20260904165723 73 0 0.0 0.0 0.00 0.00 0.00 83
20260904165223 74 0 0.0 0.0 0.00 0.00 0.00 83
20260904164723 74 0 0.0 0.0 0.00 0.00 0.00 82
20260904164223 74 0 0.0 0.0 0.00 0.00 0.00 82
20260904164006 -55 0 0.0 0.0 0.00 0.00 0.00 79
20260904163723 -55 0 0.0 0.0 0.00 0.00 0.00 79
20260904163224 0 0 0.0 0.0 0.00 0.00 0.00 78
20260904162723 0 0 0.0 0.0 0.00 0.00 0.00 78
20260904162224 0 0 0.0 0.0 0.00 0.00 0.00 79
20260904161724 0 0 0.0 0.0 0.00 0.00 0.00 79
20260904161223 75 0 0.0 0.0 0.00 0.00 0.00 80
20260904160723 75 0 0.0 0.0 0.00 0.00 0.00 79
20260904160223 0 0 0.0 0.0 0.00 0.00 0.00 83
20260904155723 0 0 0.0 0.0 0.00 0.00 0.00 83
20260904155224 73 0 0.0 0.0 0.00 0.00 0.00 85
20260904154723 -42 0 0.0 0.0 0.00 0.00 0.00 85
20260904154223 70 0 0.0 0.0 0.00 0.00 0.00 86
20260904153723 70 0 0.0 0.0 0.00 0.00 0.00 85
20260904153223 70 0 0.0 0.0 0.00 0.00 0.00 85
20260904152724 70 0 0.0 0.0 0.00 0.00 0.00 85
20260904152223 70 0 0.0 0.0 0.00 0.00 0.00 85
20260904151724 -45 0 0.0 0.0 0.00 0.00 0.00 84
20260904151224 -55 0 0.0 0.0 0.00 0.00 0.00 85
20260904150726 -55 0 0.0 0.0 0.00 0.00 0.00 84
20260904150224 -55 0 0.0 0.0 0.00 0.00 0.00 85
20260904145724 -48 0 0.0 0.0 0.00 0.00 0.00 84
20260904145224 -54 0 0.0 0.0 0.00 0.00 0.00 85
20260904144724 -55 0 0.0 0.0 0.00 0.00 0.00 86
20260904144640 -55 0 0.0 0.0 0.00 0.00 0.00 87
20260904144224 -55 0 0.0 0.0 0.00 0.00 0.00 87
20260904143724 -55 0 0.0 0.0 0.00 0.00 0.00 88
20260904143224 -55 0 0.0 0.0 0.00 0.00 0.00 87
20260904142724 -55 0 0.0 0.0 0.00 0.00 0.00 86
20260904142224 -55 0 0.0 0.0 0.00 0.00 0.00 85
20260904141724 -37 0 0.0 0.0 0.00 0.00 0.00 84
20260904141225 -41 0 0.0 0.0 0.00 0.00 0.00 84
20260904140758 -28 0 0.0 0.0 0.00 0.00 0.00 84
20260904140725 -28 0 0.0 0.0 0.00 0.00 0.00 84
20260904140225 -45 0 0.0 0.0 0.00 0.00 0.00 84
20260904135724 -43 0 0.0 0.0 0.00 0.00 0.00 85
20260904135224 -45 0 0.0 0.0 0.00 0.00 0.00 84
20260904134724 -21 0 0.0 0.0 0.00 0.00 0.00 86
20260904134224 -33 0 0.0 0.0 0.00 0.00 0.00 87
20260904133724 -23 0 0.0 0.0 0.00 0.00 0.00 89
20260904133225 -31 0 0.0 0.0 0.00 0.00 0.00 88
20260904132724 -36 0 0.0 0.0 0.00 0.00 0.00 88
20260904132224 -46 0 0.0 0.0 0.00 0.00 0.00 88
20260904131725 -47 0 0.0 0.0 0.00 0.00 0.00 88
20260904131224 -29 0 0.0 0.0 0.00 0.00 0.00 89
20260904130849 -55 0 0.0 0.0 0.00 0.00 0.00 89
20260904130724 -55 0 0.0 0.0 0.00 0.00 0.00 89
20260904130224 -49 0 0.0 0.0 0.00 0.00 0.00 90
20260904125724 -55 0 0.0 0.0 0.00 0.00 0.00 90
20260904125225 -55 0 0.0 0.0 0.00 0.00 0.00 90
20260904124724 -36 0 0.0 0.0 0.00 0.00 0.00 89
20260904124226 70 0 0.0 0.0 0.00 0.00 0.00 89
20260904123725 70 0 0.0 0.0 0.00 0.00 0.00 87
20260904123224 70 0 0.0 0.0 0.00 0.00 0.00 87
20260904122725 70 0 0.0 0.0 0.00 0.00 0.00 88
20260904122224 67 0 0.0 0.0 0.00 0.00 0.00 89
20260904121724 68 0 0.0 0.0 0.00 0.00 0.00 89
20260904121224 68 0 0.0 0.0 0.00 0.00 0.00 87
20260904120724 70 0 0.0 0.0 0.00 0.00 0.00 86
20260904120224 -40 0 0.0 0.0 0.00 0.00 0.00 86
20260904115724 -55 0 0.0 0.0 0.00 0.00 0.00 86
20260904115224 -38 0 0.0 0.0 0.00 0.00 0.00 86
20260904114724 -55 0 0.0 0.0 0.00 0.00 0.00 86
20260904114225 -55 0 0.0 0.0 0.00 0.00 0.00 87
20260904113726 -55 0 0.0 0.0 0.00 0.00 0.00 87
20260904113224 -55 0 0.0 0.0 0.00 0.00 0.00 88
20260904112724 -55 0 0.0 0.0 0.00 0.00 0.00 89
20260904112224 -55 0 0.0 0.0 0.00 0.00 0.00 89
20260904111725 0 0 0.0 0.0 0.00 0.00 0.00 89
20260904111224 0 0 0.0 0.0 0.00 0.00 0.00 88
20260904111008 0 0 0.0 0.0 0.00 0.00 0.00 88
20260904110724 0 0 0.0 0.0 0.00 0.00 0.00 88
20260904110225 0 0 0.0 0.0 0.00 0.00 0.00 89
20260904105726 0 0 0.0 0.0 0.00 0.00 0.00 90
20260904105226 0 0 0.0 0.0 0.00 0.00 0.00 90
20260904104726 0 0 0.0 0.0 0.00 0.00 0.00 91
20260904104507 0 0 0.0 0.0 0.00 0.00 0.00 90
20260904104224 0 0 0.0 0.0 0.00 0.00 0.00 90
20260904104013 0 0 0.0 0.0 0.00 0.00 0.00 90
20260904103724 0 0 0.0 0.0 0.00 0.00 0.00 90
20260904103231 0 0 0.0 0.0 0.00 0.00 0.00 90
20260904102727 0 0 0.0 0.0 0.00 0.00 0.00 90
20260904102225 0 0 0.0 0.0 0.00 0.00 0.00 90
20260904101724 0 0 0.0 0.0 0.00 0.00 0.00 90
20260904101224 0 0 0.0 0.0 0.00 0.00 0.00 90
20260904100726 0 0 0.0 0.0 0.00 0.00 0.00 90
20260904100227 0 0 0.0 0.0 0.00 0.00 0.00 91
20260904095724 0 0 0.0 0.0 0.00 0.00 0.00 91
20260904095225 0 0 0.0 0.0 0.00 0.00 0.00 92
20260904094724 0 0 0.0 0.0 0.00 0.00 0.00 92
20260904094224 0 0 0.0 0.0 0.00 0.00 0.00 92
20260904093724 -23 0 0.0 0.0 0.00 0.00 0.00 92
20260904093225 -55 0 0.0 0.0 0.00 0.00 0.00 92
20260904092725 -23 0 0.0 0.0 0.00 0.00 0.00 92
20260904092226 -26 0 0.0 0.0 0.00 0.00 0.00 92
20260904091724 -55 0 0.0 0.0 0.00 0.00 0.00 93
20260904091224 -55 0 0.0 0.0 0.00 0.00 0.00 93
20260904091008 -55 0 0.0 0.0 0.00 0.00 0.00 93
20260904090725 -55 0 0.0 0.0 0.00 0.00 0.00 93
20260904090227 -55 0 0.0 0.0 0.00 0.00 0.00 93
20260904085724 0 0 0.0 0.0 0.00 0.00 0.00 93
20260904085224 0 0 0.0 0.0 0.00 0.00 0.00 94
20260904084724 0 0 0.0 0.0 0.00 0.00 0.00 94
20260904084225 71 0 0.0 0.0 0.00 0.00 0.00 95
20260904083725 71 0 0.0 0.0 0.00 0.00 0.00 95
20260904083226 71 0 0.0 0.0 0.00 0.00 0.00 95
20260904082725 -55 0 0.0 0.0 0.00 0.00 0.00 94
20260904082225 -55 0 0.0 0.0 0.00 0.00 0.00 95
20260904081726 -55 0 0.0 0.0 0.00 0.00 0.00 96
20260904081224 -55 0 0.0 0.0 0.00 0.00 0.00 97
20260904080726 0 0 0.0 0.0 0.00 0.00 0.00 97
20260904080225 -55 0 0.0 0.0 0.00 0.00 0.00 98
20260904075724 -55 0 0.0 0.0 0.00 0.00 0.00 98
20260904075225 0 0 0.0 0.0 0.00 0.00 0.00 99
20260904074724 0 0 0.0 0.0 0.00 0.00 0.00 99
20260904074225 0 0 0.0 0.0 0.00 0.00 0.00 99
20260904074057 72 0 0.0 0.0 0.00 0.00 0.00 99
20260904073857 0 0 0.0 0.0 0.00 0.00 0.00 99
20260904073727 0 0 0.0 0.0 0.00 0.00 0.00 99
20260904073224 72 0 0.0 0.0 0.00 0.00 0.00 99
20260904072724 0 0 0.0 0.0 0.00 0.00 0.00 99
20260904072225 0 0 0.0 0.0 0.00 0.00 0.00 99
20260904071725 0 0 0.0 0.0 0.00 0.00 0.00 99
20260904071225 71 0 0.0 0.0 0.00 0.00 0.00 99
20260904070725 0 0 0.0 0.0 0.00 0.00 0.00 98
20260904070225 0 0 0.0 0.0 0.00 0.00 0.00 98
20260904065725 0 0 0.0 0.0 0.00 0.00 0.00 98
20260904065225 0 0 0.0 0.0 0.00 0.00 0.00 98
20260904064725 0 0 0.0 0.0 0.00 0.00 0.00 98
20260904064225 0 0 0.0 0.0 0.00 0.00 0.00 98
20260904063727 0 0 0.0 0.0 0.00 0.00 0.00 98
20260904063225 0 0 0.0 0.0 0.00 0.00 0.00 98
20260904062728 0 0 0.0 0.0 0.00 0.00 0.00 98
20260904062225 0 0 0.0 0.0 0.00 0.00 0.00 99
20260904061726 0 0 0.0 0.0 0.00 0.00 0.00 99
20260904061225 0 0 0.0 0.0 0.00 0.00 0.00 99
20260904060725 0 0 0.0 0.0 0.00 0.00 0.00 99
20260904060225 0 0 0.0 0.0 0.00 0.00 0.00 99
20260904055725 0 0 0.0 0.0 0.00 0.00 0.00 99
20260904055225 0 0 0.0 0.0 0.00 0.00 0.00 99
20260904054725 0 0 0.0 0.0 0.00 0.00 0.00 99
20260904054225 0 0 0.0 0.0 0.00 0.00 0.00 99
20260904053726 0 0 0.0 0.0 0.00 0.00 0.00 98
20260904053225 0 0 0.0 0.0 0.00 0.00 0.00 98
20260904052725 0 0 0.0 0.0 0.00 0.00 0.00 98
20260904052225 0 0 0.0 0.0 0.00 0.00 0.00 98
20260904051727 0 0 0.0 0.0 0.00 0.00 0.00 98
20260904051225 0 0 0.0 0.0 0.00 0.00 0.00 98
20260904050725 0 0 0.0 0.0 0.00 0.00 0.00 98
20260904050226 0 0 0.0 0.0 0.00 0.00 0.00 97
20260904045725 0 0 0.0 0.0 0.00 0.00 0.00 97
20260904045225 0 0 0.0 0.0 0.00 0.00 0.00 98
20260904044725 0 0 0.0 0.0 0.00 0.00 0.00 98
20260904044225 0 0 0.0 0.0 0.00 0.00 0.00 98
20260904043727 0 0 0.0 0.0 0.00 0.00 0.00 98
20260904043225 0 0 0.0 0.0 0.00 0.00 0.00 98
20260904042725 0 0 0.0 0.0 0.00 0.00 0.00 98
20260904042225 0 0 0.0 0.0 0.00 0.00 0.00 98
20260904041725 0 0 0.0 0.0 0.00 0.00 0.00 97
20260904041225 0 0 0.0 0.0 0.00 0.00 0.00 97
20260904040725 0 0 0.0 0.0 0.00 0.00 0.00 97
20260904040225 0 0 0.0 0.0 0.00 0.00 0.00 97
20260904035726 0 0 0.0 0.0 0.00 0.00 0.00 43
20260904035226 -55 0 0.0 0.0 0.00 0.00 0.00 97
20260904034725 -1 0 0.0 0.0 0.00 0.00 0.00 97
20260904034225 -55 0 0.0 0.0 0.00 0.00 0.00 96
20260904033801 0 0 0.0 0.0 0.00 0.00 0.00 96
20260904033725 0 0 0.0 0.0 0.00 0.00 0.00 96
20260904033227 0 0 0.0 0.0 0.00 0.00 0.00 96
20260904032725 0 0 0.0 0.0 0.00 0.00 0.00 97
20260904032226 0 0 0.0 0.0 0.00 0.00 0.00 97
20260904031727 0 0 0.0 0.0 0.00 0.00 0.00 97
20260904031227 0 0 0.0 0.0 0.00 0.00 0.00 97
20260904030725 -42 0 0.0 0.0 0.00 0.00 0.00 97
20260904025725 0 0 0.0 0.0 0.00 0.00 0.00 96
20260904025225 0 0 0.0 0.0 0.00 0.00 0.00 97
20260904024725 0 0 0.0 0.0 0.00 0.00 0.00 97
20260904024226 0 0 0.0 0.0 0.00 0.00 0.00 43
20260904023725 0 0 0.0 0.0 0.00 0.00 0.00 96
20260904023225 0 0 0.0 0.0 0.00 0.00 0.00 96
20260904022725 0 0 0.0 0.0 0.00 0.00 0.00 96
20260904022230 0 0 0.0 0.0 0.00 0.00 0.00 96
20260904021726 0 0 0.0 0.0 0.00 0.00 0.00 96
20260904021225 0 0 0.0 0.0 0.00 0.00 0.00 96
20260904020728 0 0 0.0 0.0 0.00 0.00 0.00 96
20260904020226 0 0 0.0 0.0 0.00 0.00 0.00 96
20260904015726 0 0 0.0 0.0 0.00 0.00 0.00 96
20260904015226 0 0 0.0 0.0 0.00 0.00 0.00 96
20260904014725 0 0 0.0 0.0 0.00 0.00 0.00 95
20260904014225 0 0 0.0 0.0 0.00 0.00 0.00 95
20260904013725 0 0 0.0 0.0 0.00 0.00 0.00 95
20260904013227 0 0 0.0 0.0 0.00 0.00 0.00 95
20260904012725 0 0 0.0 0.0 0.00 0.00 0.00 96
20260904012225 0 0 0.0 0.0 0.00 0.00 0.00 96
20260904011725 0 0 0.0 0.0 0.00 0.00 0.00 96
20260904010726 0 0 0.0 0.0 0.00 0.00 0.00 96
20260904005725 0 0 0.0 0.0 0.00 0.00 0.00 96
20260904005226 14 0 0.0 0.0 0.00 0.00 0.00 96
20260904004725 16 0 0.0 0.0 0.00 0.00 0.00 96
20260904004226 18 0 0.0 0.0 0.00 0.00 0.00 96
20260904003725 23 0 0.0 0.0 0.00 0.00 0.00 96
20260904003226 0 0 0.0 0.0 0.00 0.00 0.00 96
20260904002726 0 0 0.0 0.0 0.00 0.00 0.00 96
20260904002225 0 0 0.0 0.0 0.00 0.00 0.00 96
20260904001725 0 0 0.0 0.0 0.00 0.00 0.00 96
20260904001225 0 0 0.0 0.0 0.00 0.00 0.00 96
20260904000725 0 0 0.0 0.0 0.00 0.00 0.00 97
20260904000227 0 0 0.0 0.0 0.00 0.00 0.00 97
20260903235725 0 0 0.0 0.0 0.00 0.00 0.00 97
20260903235226 0 0 0.0 0.0 0.00 0.00 0.00 97
20260903234725 0 0 0.0 0.0 0.00 0.00 0.00 97
20260903234225 0 0 0.0 0.0 0.00 0.00 0.00 98
20260903233725 0 0 0.0 0.0 0.00 0.00 0.00 99
20260903233226 0 0 0.0 0.0 0.00 0.00 0.00 99
20260903232734 0 0 0.0 0.0 0.00 0.00 0.00 100
20260903232225 0 0 0.0 0.0 0.00 0.00 0.00 99
20260903231725 0 0 0.0 0.0 0.00 0.00 0.00 99
20260903231226 0 0 0.0 0.0 0.00 0.00 0.00 99
20260903230725 0 0 0.0 0.0 0.00 0.00 0.00 98
20260903230225 0 0 0.0 0.0 0.00 0.00 0.00 98
20260903225725 0 308 1.0 6.0 0.00 0.00 0.00 98
20260903225226 0 0 0.0 0.0 0.00 0.00 0.00 97
20260903224726 0 0 0.0 0.0 0.00 0.00 0.00 97
20260903224226 0 0 0.0 0.0 0.00 0.00 0.00 97
20260903223729 0 0 0.0 0.0 0.00 0.00 0.00 96
20260903223226 0 316 0.0 3.0 0.00 0.00 0.00 96